Tracking 31027 objects as of 19-Jul-2025
HD Live streaming from Space Station
objects crossing your sky now

TITAN 3C TRANSTAGE DEB

Track TITAN 3C TRANSTAGE DEB now!
10-day predictions


NORAD ID: 28808
Int'l Code: 1965-108CA
Perigee: 320.2 km
Apogee: 19,154.3 km
Inclination: 27.9 °
Period: 339.1 minutes
Semi major axis: 16108 km
RCS: 0.01 m2 (small)
Launch date: December 21, 1965
Source: United States (US)
Launch site: AIR FORCE EASTERN TEST RANGE (AFETR)

Note: This is SATELLITE DEBRIS
Your satellite tracking list
STARLINK-3957
Track 1 satellite(s)




NASA's NSSDC Master Catalog

Two Line Element Set (TLE):
1 28808U 65108CA  25194.71449050  .00002491  00000-0  78685-3 0  9990
2 28808  27.8880   6.2153 5846125 200.6480 119.8157  4.24649469 49035
Source of the keplerian elements: AFSPC